Location: Azat
(46.0765°N, 1.7600°E)
Time: 22:39:36
(UTC+00:00)

Cosmos 1943 - Pass Details

Date: 09 April 2020
Orbit: 832 x 851 km, 71.0° (Epoch: 05 June)

Event Time Altitude Azimuth Distance (km) Brightness Sun altitude
Rises 19:07:21 0° 213° (SSW) 3,382 6.5 -6.6°
Reaches altitude 10° 19:09:48 10° 216° (SW) 2,454 5.8 -7.0°
Maximum altitude 19:15:24 67° 299° (WNW) 915 3.7 -7.9°
Drops below altitude 10° 19:21:05 10° 22° (NNE) 2,481 5.6 -8.9°
Sets 19:23:34 0° 25° (NNE) 3,423 6.3 -9.3°
